"Sample Date","Sample Time","Sample Value","Units","Flow Rate","Sample Interval","Number Channels","Micron Size 0","Counts/Channel 0","Micron Size 1","Counts/Channel 1","Micron Size 2","Counts/Channel 2","Micron Size 3","Counts/Channel 3","Micron Size 4","Counts/Channel 4","Micron Size 5","Counts/Channel 5","Micron Size 6","Counts/Channel 6","Micron Size 7","Counts/Channel 7","Micron Size 8","Counts/Channel 8","Micron Size 9","Counts/Channel 9","Micron Size 10","Counts/Channel 10","Micron Size 11","Counts/Channel 11","Micron Size 12","Counts/Channel 12","Micron Size 13","Counts/Channel 13","Micron Size 14","Counts/Channel 14","Micron Size 15","Counts/Channel 15","Micron Size 16","Counts/Channel 16","Micron Size 17","Counts/Channel 17","Micron Size 18","Counts/Channel 18","Micron Size 19","Counts/Channel 19","Micron Size 20","Counts/Channel 20","Micron Size 21","Counts/Channel 21","Micron Size 22","Counts/Channel 22","Micron Size 23","Counts/Channel 23","Micron Size 24","Counts/Channel 24","Micron Size 25","Counts/Channel 25","Micron Size 26","Counts/Channel 26","Micron Size 27","Counts/Channel 27","Micron Size 28","Counts/Channel 28","Micron Size 29","Counts/Channel 29","Micron Size 30","Counts/Channel 30","Micron Size 31","Counts/Channel 31"
"04/03/08","08:00:03",75526.000,"cc",28339.832,6.00,6,0.100,65614.000,0.200,6518.000,0.300,1614.000,0.500,1391.000,1.000,389.000,5.000,0
"04/03/08","08:00:09",55734.000,"cc",28305.037,6.00,6,0.100,47671.000,0.200,4917.000,0.300,1441.000,0.500,1353.000,1.000,352.000,5.000,0
"04/03/08","08:00:15",49696.000,"cc",28344.092,6.00,6,0.100,42049.000,0.200,4528.000,0.300,1387.000,0.500,1384.000,1.000,348.000,5.000,0
"04/03/08","08:00:21",60501.000,"cc",28339.477,6.00,6,0.100,51814.000,0.200,5410.000,0.300,1536.000,0.500,1391.000,1.000,350.000,5.000,0
"04/03/08","08:00:27",83352.000,"cc",28316.736,6.00,6,0.100,72698.000,0.200,7168.000,0.300,1636.000,0.500,1473.000,1.000,377.000,5.000,0
"04/03/08","08:00:33",124786.000,"cc",28225.170,6.00,6,0.100,110485.000,0.200,10407.000,0.300,1892.000,0.500,1572.000,1.000,430.000,5.000,0
"04/03/08","08:00:39",115876.000,"cc",28285.434,6.00,6,0.100,101781.000,0.200,9891.000,0.300,2123.000,0.500,1679.000,1.000,402.000,5.000,0
"04/03/08","08:00:45",127809.000,"cc",28340.410,6.00,6,0.100,112258.000,0.200,10945.000,0.300,2268.000,0.500,1878.000,1.000,460.000,5.000,0
"04/03/08","08:00:51",110597.000,"cc",28312.084,6.00,6,0.100,96513.000,0.200,9592.000,0.300,2134.000,0.500,1845.000,1.000,513.000,5.000,0
"04/03/08","08:00:57",122669.000,"cc",28360.518,6.00,6,0.100,106293.000,0.200,10991.000,0.300,2635.000,0.500,2185.000,1.000,565.000,5.000,0
"04/03/08","08:01:03",80584.000,"cc",28366.695,6.00,6,0.100,69055.000,0.200,7250.000,0.300,2003.000,0.500,1812.000,1.000,464.000,5.000,0
"04/03/08","08:01:09",90215.000,"cc",28289.809,6.00,6,0.100,77965.000,0.200,8107.000,0.300,1947.000,0.500,1730.000,1.000,466.000,5.000,0
"04/03/08","08:01:15",51516.000,"cc",28308.516,6.00,6,0.100,43505.000,0.200,4699.000,0.300,1507.000,0.500,1413.000,1.000,392.000,5.000,0
"04/03/08","08:01:21",53233.000,"cc",28227.000,6.00,6,0.100,45043.000,0.200,4876.000,0.300,1498.000,0.500,1430.000,1.000,386.000,5.000,0
"04/03/08","08:01:27",60698.000,"cc",28385.604,6.00,6,0.100,51317.000,0.200,5573.000,0.300,1746.000,0.500,1628.000,1.000,434.000,5.000,0
"04/03/08","08:01:33",63862.000,"cc",28345.994,6.00,6,0.100,53412.000,0.200,6164.000,0.300,2026.000,0.500,1789.000,1.000,471.000,5.000,0
"04/03/08","08:01:39",55442.000,"cc",28260.791,6.00,6,0.100,45892.000,0.200,5388.000,0.300,1948.000,0.500,1772.000,1.000,442.000,5.000,0
"04/03/08","08:01:45",65018.000,"cc",28295.057,6.00,6,0.100,55027.000,0.200,6108.000,0.300,1806.000,0.500,1643.000,1.000,434.000,5.000,0
"04/03/08","08:01:51",52680.000,"cc",28338.422,6.00,6,0.100,44215.000,0.200,4908.000,0.300,1687.000,0.500,1484.000,1.000,386.000,5.000,0
"04/03/08","08:01:57",94347.000,"cc",28310.621,6.00,6,0.100,82523.000,0.200,8121.000,0.300,1734.000,0.500,1561.000,1.000,408.000,5.000,0
"04/03/08","08:02:03",128554.000,"cc",28326.236,6.00,6,0.100,112432.000,0.200,11285.000,0.300,2357.000,0.500,1971.000,1.000,509.000,5.000,0
"04/03/08","08:02:09",93368.000,"cc",28341.102,6.00,6,0.100,81088.000,0.200,8208.000,0.300,1973.000,0.500,1675.000,1.000,424.000,5.000,0
"04/03/08","08:02:15",77129.000,"cc",28305.883,6.00,6,0.100,66258.000,0.200,6982.000,0.300,1834.000,0.500,1657.000,1.000,398.000,5.000,0
"04/03/08","08:02:21",116023.000,"cc",28336.914,6.00,6,0.100,102321.000,0.200,9648.000,0.300,1945.000,0.500,1664.000,1.000,445.000,5.000,0
"04/03/08","08:02:27",91400.000,"cc",28286.156,6.00,6,0.100,80269.000,0.200,7822.000,0.300,1561.000,0.500,1398.000,1.000,350.000,5.000,0
"04/03/08","08:02:33",107556.000,"cc",28321.715,6.00,6,0.100,94429.000,0.200,9213.000,0.300,1858.000,0.500,1659.000,1.000,397.000,5.000,0
"04/03/08","08:02:39",92976.000,"cc",28276.768,6.00,6,0.100,81733.000,0.200,7859.000,0.300,1594.000,0.500,1448.000,1.000,342.000,5.000,0
"04/03/08","08:02:45",77973.000,"cc",28350.457,6.00,6,0.100,68531.000,0.200,6436.000,0.300,1435.000,0.500,1259.000,1.000,312.000,5.000,0
"04/03/08","08:02:51",83929.000,"cc",28315.191,6.00,6,0.100,73919.000,0.200,7087.000,0.300,1388.000,0.500,1210.000,1.000,325.000,5.000,0
"04/03/08","08:02:57",82556.000,"cc",28313.783,6.00,6,0.100,71994.000,0.200,7107.000,0.300,1624.000,0.500,1430.000,1.000,401.000,5.000,0
"04/03/08","08:03:03",47223.000,"cc",28324.736,6.00,6,0.100,39940.000,0.200,4314.000,0.300,1339.000,0.500,1317.000,1.000,313.000,5.000,0
"04/03/08","08:03:09",71688.000,"cc",28304.209,6.00,6,0.100,62232.000,0.200,6240.000,0.300,1492.000,0.500,1357.000,1.000,367.000,5.000,0
"04/03/08","08:03:15",112744.000,"cc",28277.996,6.00,6,0.100,99509.000,0.200,9689.000,0.300,1716.000,0.500,1477.000,1.000,353.000,5.000,0
"04/03/08","08:03:21",212480.000,"cc",28354.520,6.00,6,0.100,188985.000,0.200,19581.000,0.300,2064.000,0.500,1463.000,1.000,387.000,5.000,0
"04/03/08","08:03:27",145969.000,"cc",28310.049,6.00,6,0.100,130223.000,0.200,12180.000,0.300,1764.000,0.500,1408.000,1.000,394.000,5.000,0
"04/03/08","08:03:33",211165.000,"cc",28312.617,6.00,6,0.100,188124.000,0.200,19328.000,0.300,1949.000,0.500,1382.000,1.000,382.000,5.000,0
"04/03/08","08:03:39",202102.000,"cc",28289.873,6.00,6,0.100,180985.000,0.200,17287.000,0.300,2042.000,0.500,1410.000,1.000,378.000,5.000,0
"04/03/08","08:03:45",105769.000,"cc",28253.920,6.00,6,0.100,93628.000,0.200,8924.000,0.300,1568.000,0.500,1305.000,1.000,344.000,5.000,0
"04/03/08","08:03:51",88043.000,"cc",28335.035,6.00,6,0.100,77019.000,0.200,7560.000,0.300,1587.000,0.500,1442.000,1.000,435.000,5.000,0
"04/03/08","08:03:57",73744.000,"cc",28335.631,6.00,6,0.100,63904.000,0.200,6511.000,0.300,1519.000,0.500,1428.000,1.000,382.000,5.000,0
"04/03/08","08:04:03",127080.000,"cc",28387.908,6.00,6,0.100,111866.000,0.200,10892.000,0.300,2064.000,0.500,1771.000,1.000,487.000,5.000,0
"04/03/08","08:04:09",179499.000,"cc",28346.703,6.00,6,0.100,157706.000,0.200,16459.000,0.300,2727.000,0.500,2079.000,1.000,528.000,5.000,0
"04/03/08","08:04:15",217474.000,"cc",28302.088,6.00,6,0.100,192608.000,0.200,19674.000,0.300,2677.000,0.500,1984.000,1.000,531.000,5.000,0
"04/03/08","08:04:21",140296.000,"cc",28300.231,6.00,6,0.100,124814.000,0.200,11896.000,0.300,1765.000,0.500,1403.000,1.000,418.000,5.000,0
"04/03/08","08:04:27",152293.000,"cc",28295.395,6.00,6,0.100,135284.000,0.200,13174.000,0.300,1897.000,0.500,1535.000,1.000,403.000,5.000,0
"04/03/08","08:04:33",110244.000,"cc",28299.359,6.00,6,0.100,97502.000,0.200,9218.000,0.300,1762.000,0.500,1416.000,1.000,346.000,5.000,0
"04/03/08","08:04:39",133985.000,"cc",28342.965,6.00,6,0.100,118336.000,0.200,11642.000,0.300,1940.000,0.500,1680.000,1.000,387.000,5.000,0
"04/03/08","08:04:45",69209.000,"cc",28384.859,6.00,6,0.100,59925.000,0.200,5875.000,0.300,1587.000,0.500,1437.000,1.000,385.000,5.000,0
"04/03/08","08:04:51",63114.000,"cc",28328.690,6.00,6,0.100,54517.000,0.200,5452.000,0.300,1409.000,0.500,1374.000,1.000,362.000,5.000,0
"04/03/08","08:04:57",140629.000,"cc",28273.676,6.00,6,0.100,125500.000,0.200,11577.000,0.300,1766.000,0.500,1431.000,1.000,355.000,5.000,0
"04/03/08","08:05:03",117910.000,"cc",28302.777,6.00,6,0.100,104938.000,0.200,9728.000,0.300,1638.000,0.500,1283.000,1.000,323.000,5.000,0
"04/03/08","08:05:09",97428.000,"cc",28347.125,6.00,6,0.100,85576.000,0.200,8271.000,0.300,1702.000,0.500,1479.000,1.000,400.000,5.000,0
"04/03/08","08:05:15",86116.000,"cc",28304.207,6.00,6,0.100,74993.000,0.200,7418.000,0.300,1757.000,0.500,1521.000,1.000,427.000,5.000,0
"04/03/08","08:05:21",66009.000,"cc",28331.158,6.00,6,0.100,56796.000,0.200,5767.000,0.300,1633.000,0.500,1431.000,1.000,382.000,5.000,0
"04/03/08","08:05:27",61562.000,"cc",28328.348,6.00,6,0.100,52693.000,0.200,5509.000,0.300,1569.000,0.500,1428.000,1.000,363.000,5.000,0
"04/03/08","08:05:33",110499.000,"cc",28333.285,6.00,6,0.100,96951.000,0.200,9656.000,0.300,1847.000,0.500,1618.000,1.000,427.000,5.000,0
"04/03/08","08:05:39",94001.000,"cc",28292.254,6.00,6,0.100,81907.000,0.200,8218.000,0.300,1841.000,0.500,1596.000,1.000,439.000,5.000,0
"04/03/08","08:05:45",57980.000,"cc",28265.057,6.00,6,0.100,49287.000,0.200,5251.000,0.300,1614.000,0.500,1430.000,1.000,398.000,5.000,0
"04/03/08","08:05:51",50789.000,"cc",28384.434,6.00,6,0.100,42144.000,0.200,5040.000,0.300,1657.000,0.500,1541.000,1.000,407.000,5.000,0
"04/03/08","08:05:57",49503.000,"cc",28244.039,6.00,6,0.100,40869.000,0.200,4936.000,0.300,1741.000,0.500,1476.000,1.000,481.000,5.000,0
"04/03/08","08:06:03",39442.000,"cc",28303.113,6.00,6,0.100,32070.000,0.200,3980.000,0.300,1580.000,0.500,1424.000,1.000,388.000,5.000,0
"04/03/08","08:06:09",41209.000,"cc",28335.232,6.00,6,0.100,34598.000,0.200,3867.000,0.300,1238.000,0.500,1209.000,1.000,297.000,5.000,0
"04/03/08","08:06:15",74528.000,"cc",28347.777,6.00,6,0.100,64855.000,0.200,6624.000,0.300,1451.000,0.500,1270.000,1.000,328.000,5.000,0
"04/03/08","08:06:21",52402.000,"cc",28361.953,6.00,6,0.100,44789.000,0.200,4813.000,0.300,1281.000,0.500,1223.000,1.000,296.000,5.000,0
"04/03/08","08:06:27",103577.000,"cc",28296.859,6.00,6,0.100,91589.000,0.200,8900.000,0.300,1533.000,0.500,1231.000,1.000,324.000,5.000,0
"04/03/08","08:06:33",80533.000,"cc",28317.461,6.00,6,0.100,70846.000,0.200,6875.000,0.300,1279.000,0.500,1247.000,1.000,286.000,5.000,0
"04/03/08","08:06:39",99261.000,"cc",28285.440,6.00,6,0.100,87430.000,0.200,8950.000,0.300,1420.000,0.500,1178.000,1.000,283.000,5.000,0
"04/03/08","08:06:45",27069.000,"cc",28232.740,6.00,6,0.100,22128.000,0.200,2666.000,0.300,1018.000,0.500,986.000,1.000,271.000,5.000,0
"04/03/08","08:06:51",21249.000,"cc",28352.680,6.00,6,0.100,16688.000,0.200,2332.000,0.300,1024.000,0.500,947.000,1.000,258.000,5.000,0
"04/03/08","08:06:57",19845.000,"cc",28244.834,6.00,6,0.100,15467.000,0.200,2168.000,0.300,1009.000,0.500,947.000,1.000,254.000,5.000,0
"04/03/08","08:07:03",17143.000,"cc",28338.109,6.00,6,0.100,13095.000,0.200,1977.000,0.300,909.000,0.500,922.000,1.000,240.000,5.000,0
"04/03/08","08:07:09",17551.000,"cc",28348.268,6.00,6,0.100,13309.000,0.200,1997.000,0.300,1029.000,0.500,970.000,1.000,246.000,5.000,0
"04/03/08","08:07:15",17207.000,"cc",28303.451,6.00,6,0.100,13125.000,0.200,1946.000,0.300,920.000,0.500,983.000,1.000,233.000,5.000,0
"04/03/08","08:07:21",17136.000,"cc",28360.424,6.00,6,0.100,13011.000,0.200,2024.000,0.300,960.000,0.500,914.000,1.000,227.000,5.000,0
"04/03/08","08:07:27",17195.000,"cc",28267.953,6.00,6,0.100,12964.000,0.200,2015.000,0.300,1009.000,0.500,966.000,1.000,241.000,5.000,0
"04/03/08","08:07:33",17310.000,"cc",28309.174,6.00,6,0.100,13019.000,0.200,1988.000,0.300,1036.000,0.500,1007.000,1.000,260.000,5.000,0
"04/03/08","08:07:39",16896.000,"cc",28345.203,6.00,6,0.100,12747.000,0.200,1968.000,0.300,992.000,0.500,940.000,1.000,249.000,5.000,0
"04/03/08","08:07:45",17114.000,"cc",28285.684,6.00,6,0.100,12780.000,0.200,2099.000,0.300,952.000,0.500,1023.000,1.000,260.000,5.000,0
"04/03/08","08:07:51",17197.000,"cc",28410.846,6.00,6,0.100,12979.000,0.200,2038.000,0.300,968.000,0.500,963.000,1.000,249.000,5.000,0
"04/03/08","08:07:57",17259.000,"cc",28238.731,6.00,6,0.100,12925.000,0.200,2095.000,0.300,982.000,0.500,1018.000,1.000,239.000,5.000,0
"04/03/08","08:08:03",16854.000,"cc",28315.697,6.00,6,0.100,12695.000,0.200,2027.000,0.300,936.000,0.500,953.000,1.000,243.000,5.000,0
"04/03/08","08:08:09",16813.000,"cc",28325.525,6.00,6,0.100,12564.000,0.200,2000.000,0.300,991.000,0.500,970.000,1.000,288.000,5.000,0
"04/03/08","08:08:15",17023.000,"cc",28302.055,6.00,6,0.100,12754.000,0.200,2107.000,0.300,989.000,0.500,926.000,1.000,247.000,5.000,0
"04/03/08","08:08:21",16739.000,"cc",28263.131,6.00,6,0.100,12706.000,0.200,1980.000,0.300,894.000,0.500,920.000,1.000,239.000,5.000,0
"04/03/08","08:08:27",16741.000,"cc",28315.020,6.00,6,0.100,12650.000,0.200,1976.000,0.300,948.000,0.500,930.000,1.000,237.000,5.000,0
"04/03/08","08:08:33",16998.000,"cc",28353.209,6.00,6,0.100,12830.000,0.200,2009.000,0.300,959.000,0.500,944.000,1.000,256.000,5.000,0
"04/03/08","08:08:39",16637.000,"cc",28277.869,6.00,6,0.100,12653.000,0.200,1944.000,0.300,873.000,0.500,935.000,1.000,232.000,5.000,0
"04/03/08","08:08:45",17020.000,"cc",28380.963,6.00,6,0.100,12789.000,0.200,2017.000,0.300,974.000,0.500,1028.000,1.000,212.000,5.000,0
"04/03/08","08:08:51",16594.000,"cc",28273.389,6.00,6,0.100,12556.000,0.200,1927.000,0.300,959.000,0.500,918.000,1.000,234.000,5.000,0
"04/03/08","08:08:57",16717.000,"cc",28334.307,6.00,6,0.100,12571.000,0.200,1945.000,0.300,1007.000,0.500,959.000,1.000,235.000,5.000,0
"04/03/08","08:09:03",17367.000,"cc",28279.129,6.00,6,0.100,13002.000,0.200,2015.000,0.300,1053.000,0.500,998.000,1.000,293.000,5.000,6.000
"04/03/08","08:09:09",17025.000,"cc",28276.793,6.00,6,0.100,12821.000,0.200,2008.000,0.300,1015.000,0.500,945.000,1.000,236.000,5.000,0
"04/03/08","08:09:15",16892.000,"cc",28356.635,6.00,6,0.100,12664.000,0.200,2070.000,0.300,922.000,0.500,1000.000,1.000,236.000,5.000,0
"04/03/08","08:09:21",16981.000,"cc",28429.264,6.00,6,0.100,12798.000,0.200,1971.000,0.300,1018.000,0.500,945.000,1.000,249.000,5.000,0
"04/03/08","08:09:27",17021.000,"cc",28290.434,6.00,6,0.100,12789.000,0.200,2007.000,0.300,968.000,0.500,986.000,1.000,271.000,5.000,0
"04/03/08","08:09:33",16985.000,"cc",28325.908,6.00,6,0.100,12727.000,0.200,2071.000,0.300,914.000,0.500,1028.000,1.000,245.000,5.000,0
"04/03/08","08:09:39",17281.000,"cc",28325.951,6.00,6,0.100,13011.000,0.200,2053.000,0.300,956.000,0.500,975.000,1.000,286.000,5.000,0
"04/03/08","08:09:45",17290.000,"cc",28312.662,6.00,6,0.100,13002.000,0.200,2081.000,0.300,977.000,0.500,997.000,1.000,233.000,5.000,0
"04/03/08","08:09:51",17297.000,"cc",28337.547,6.00,6,0.100,13046.000,0.200,2015.000,0.300,955.000,0.500,1013.000,1.000,268.000,5.000,0
"04/03/08","08:09:57",17217.000,"cc",28385.752,6.00,6,0.100,12814.000,0.200,2064.000,0.300,1042.000,0.500,1040.000,1.000,257.000,5.000,0
"04/03/08","08:10:03",16996.000,"cc",28256.531,6.00,6,0.100,12665.000,0.200,2105.000,0.300,982.000,0.500,987.000,1.000,257.000,5.000,0
"04/03/08","08:10:09",17043.000,"cc",28349.635,6.00,6,0.100,12763.000,0.200,2018.000,0.300,989.000,0.500,998.000,1.000,275.000,5.000,0
"04/03/08","08:10:15",17153.000,"cc",28364.561,6.00,6,0.100,12814.000,0.200,1970.000,0.300,1025.000,0.500,1029.000,1.000,315.000,5.000,0
"04/03/08","08:10:21",17439.000,"cc",28254.273,6.00,6,0.100,12888.000,0.200,2108.000,0.300,1015.000,0.500,1106.000,1.000,322.000,5.000,0
"04/03/08","08:10:27",17403.000,"cc",28358.568,6.00,6,0.100,12976.000,0.200,2082.000,0.300,1054.000,0.500,1011.000,1.000,280.000,5.000,0
"04/03/08","08:10:33",17123.000,"cc",28387.693,6.00,6,0.100,12743.000,0.200,2049.000,0.300,1036.000,0.500,1004.000,1.000,291.000,5.000,0
"04/03/08","08:10:39",17385.000,"cc",28305.719,6.00,6,0.100,12794.000,0.200,2205.000,0.300,1041.000,0.500,1069.000,1.000,276.000,5.000,0
"04/03/08","08:10:45",17275.000,"cc",28290.182,6.00,6,0.100,12880.000,0.200,2151.000,0.300,1012.000,0.500,967.000,1.000,265.000,5.000,0
"04/03/08","08:10:51",17382.000,"cc",28241.742,6.00,6,0.100,12948.000,0.200,2177.000,0.300,1002.000,0.500,977.000,1.000,278.000,5.000,0
"04/03/08","08:10:57",17167.000,"cc",28238.955,6.00,6,0.100,12931.000,0.200,2058.000,0.300,982.000,0.500,931.000,1.000,265.000,5.000,0
"04/03/08","08:11:03",17588.000,"cc",28306.522,6.00,6,0.100,13136.000,0.200,2157.000,0.300,1019.000,0.500,1021.000,1.000,255.000,5.000,0
"04/03/08","08:11:09",17571.000,"cc",28447.027,6.00,6,0.100,13038.000,0.200,2154.000,0.300,1095.000,0.500,1026.000,1.000,258.000,5.000,0
"04/03/08","08:11:15",17498.000,"cc",28312.975,6.00,6,0.100,12987.000,0.200,2164.000,0.300,1033.000,0.500,1028.000,1.000,286.000,5.000,0
"04/03/08","08:11:21",17688.000,"cc",28253.818,6.00,6,0.100,13151.000,0.200,2218.000,0.300,1093.000,0.500,971.000,1.000,255.000,5.000,0
"04/03/08","08:11:27",17744.000,"cc",28366.451,6.00,6,0.100,13298.000,0.200,2146.000,0.300,1040.000,0.500,1005.000,1.000,255.000,5.000,0
"04/03/08","08:11:33",17781.000,"cc",28382.701,6.00,6,0.100,13226.000,0.200,2240.000,0.300,995.000,0.500,1083.000,1.000,237.000,5.000,0
"04/03/08","08:11:39",17377.000,"cc",28268.924,6.00,6,0.100,12990.000,0.200,2134.000,0.300,1025.000,0.500,977.000,1.000,251.000,5.000,0
"04/03/08","08:11:45",17896.000,"cc",28459.561,6.00,6,0.100,13254.000,0.200,2294.000,0.300,1069.000,0.500,1003.000,1.000,276.000,5.000,0
"04/03/08","08:11:51",17736.000,"cc",28418.250,6.00,6,0.100,13182.000,0.200,2226.000,0.300,1037.000,0.500,1033.000,1.000,258.000,5.000,0
"04/03/08","08:11:57",18237.000,"cc",28272.010,6.00,6,0.100,13498.000,0.200,2264.000,0.300,1135.000,0.500,1072.000,1.000,268.000,5.000,0
"04/03/08","08:12:03",17930.000,"cc",28322.490,6.00,6,0.100,13356.000,0.200,2221.000,0.300,1065.000,0.500,1022.000,1.000,266.000,5.000,0
"04/03/08","08:12:09",17855.000,"cc",28384.684,6.00,6,0.100,13400.000,0.200,2144.000,0.300,1012.000,0.500,1022.000,1.000,277.000,5.000,0
"04/03/08","08:12:15",17377.000,"cc",28376.420,6.00,6,0.100,12860.000,0.200,2185.000,0.300,1053.000,0.500,997.000,1.000,282.000,5.000,0
"04/03/08","08:12:21",17573.000,"cc",28339.682,6.00,6,0.100,13063.000,0.200,2163.000,0.300,1063.000,0.500,1043.000,1.000,241.000,5.000,0
"04/03/08","08:12:27",17950.000,"cc",28281.070,6.00,6,0.100,13344.000,0.200,2235.000,0.300,1055.000,0.500,1082.000,1.000,234.000,5.000,0
"04/03/08","08:12:33",18039.000,"cc",28291.283,6.00,6,0.100,13453.000,0.200,2199.000,0.300,1080.000,0.500,1064.000,1.000,243.000,5.000,0
"04/03/08","08:12:39",17857.000,"cc",28342.291,6.00,6,0.100,13380.000,0.200,2234.000,0.300,1074.000,0.500,943.000,1.000,226.000,5.000,0
"04/03/08","08:12:45",17805.000,"cc",28324.209,6.00,6,0.100,13284.000,0.200,2268.000,0.300,1061.000,0.500,968.000,1.000,224.000,5.000,0
"04/03/08","08:12:51",17933.000,"cc",28349.326,6.00,6,0.100,13322.000,0.200,2277.000,0.300,1061.000,0.500,1025.000,1.000,248.000,5.000,0
"04/03/08","08:12:57",17714.000,"cc",28158.211,6.00,6,0.100,13174.000,0.200,2189.000,0.300,1058.000,0.500,1071.000,1.000,222.000,5.000,0
"04/03/08","08:13:03",17619.000,"cc",28293.334,6.00,6,0.100,13096.000,0.200,2281.000,0.300,1060.000,0.500,944.000,1.000,238.000,5.000,0
"04/03/08","08:13:09",17798.000,"cc",28385.326,6.00,6,0.100,13201.000,0.200,2303.000,0.300,1093.000,0.500,971.000,1.000,230.000,5.000,0
"04/03/08","08:13:15",17835.000,"cc",28242.852,6.00,6,0.100,13194.000,0.200,2278.000,0.300,1119.000,0.500,998.000,1.000,246.000,5.000,0
"04/03/08","08:13:21",17765.000,"cc",28368.748,6.00,6,0.100,13194.000,0.200,2229.000,0.300,1071.000,0.500,1061.000,1.000,210.000,5.000,0
"04/03/08","08:13:27",17515.000,"cc",28418.065,6.00,6,0.100,13060.000,0.200,2269.000,0.300,1036.000,0.500,937.000,1.000,213.000,5.000,0
"04/03/08","08:13:33",17448.000,"cc",28147.320,6.00,6,0.100,12890.000,0.200,2341.000,0.300,1048.000,0.500,968.000,1.000,201.000,5.000,0
"04/03/08","08:13:39",17377.000,"cc",28314.580,6.00,6,0.100,12956.000,0.200,2243.000,0.300,1021.000,0.500,952.000,1.000,205.000,5.000,0
"04/03/08","08:13:45",17636.000,"cc",28277.205,6.00,6,0.100,13053.000,0.200,2391.000,0.300,1022.000,0.500,958.000,1.000,212.000,5.000,0
"04/03/08","08:13:51",17673.000,"cc",28358.441,6.00,6,0.100,13267.000,0.200,2222.000,0.300,977.000,0.500,974.000,1.000,233.000,5.000,0
"04/03/08","08:13:57",17707.000,"cc",28382.234,6.00,6,0.100,13128.000,0.200,2339.000,0.300,1034.000,0.500,980.000,1.000,226.000,5.000,0
"04/03/08","08:14:03",17737.000,"cc",28373.219,6.00,6,0.100,13146.000,0.200,2247.000,0.300,1081.000,0.500,1017.000,1.000,246.000,5.000,0
"04/03/08","08:14:09",17844.000,"cc",28347.523,6.00,6,0.100,13230.000,0.200,2268.000,0.300,1101.000,0.500,1009.000,1.000,236.000,5.000,0
"04/03/08","08:14:15",17458.000,"cc",28321.908,6.00,6,0.100,12918.000,0.200,2298.000,0.300,1100.000,0.500,913.000,1.000,229.000,5.000,0
"04/03/08","08:14:21",17795.000,"cc",28311.100,6.00,6,0.100,13246.000,0.200,2357.000,0.300,1026.000,0.500,966.000,1.000,200.000,5.000,0
"04/03/08","08:14:27",17469.000,"cc",28206.217,6.00,6,0.100,12949.000,0.200,2295.000,0.300,1084.000,0.500,922.000,1.000,219.000,5.000,0
"04/03/08","08:14:33",17419.000,"cc",28405.848,6.00,6,0.100,13001.000,0.200,2275.000,0.300,1027.000,0.500,926.000,1.000,190.000,5.000,0
"04/03/08","08:14:39",17671.000,"cc",28322.525,6.00,6,0.100,13002.000,0.200,2350.000,0.300,1137.000,0.500,947.000,1.000,235.000,5.000,0
"04/03/08","08:14:45",17417.000,"cc",28294.400,6.00,6,0.100,12852.000,0.200,2325.000,0.300,1107.000,0.500,923.000,1.000,210.000,5.000,0
"04/03/08","08:14:51",17503.000,"cc",28356.383,6.00,6,0.100,13039.000,0.200,2370.000,0.300,1025.000,0.500,870.000,1.000,199.000,5.000,0
"04/03/08","08:14:57",17626.000,"cc",28306.152,6.00,6,0.100,13001.000,0.200,2357.000,0.300,1128.000,0.500,951.000,1.000,189.000,5.000,0
"04/03/08","08:15:03",17609.000,"cc",28334.676,6.00,6,0.100,13050.000,0.200,2353.000,0.300,1089.000,0.500,917.000,1.000,200.000,5.000,0
"04/03/08","08:15:09",17489.000,"cc",28315.250,6.00,6,0.100,13113.000,0.200,2289.000,0.300,1016.000,0.500,853.000,1.000,218.000,5.000,0
"04/03/08","08:15:15",17503.000,"cc",28348.873,6.00,6,0.100,13015.000,0.200,2341.000,0.300,1051.000,0.500,903.000,1.000,193.000,5.000,0
"04/03/08","08:15:21",17707.000,"cc",28235.897,6.00,6,0.100,13118.000,0.200,2357.000,0.300,1111.000,0.500,934.000,1.000,187.000,5.000,0
"04/03/08","08:15:27",17700.000,"cc",28355.621,6.00,6,0.100,13147.000,0.200,2390.000,0.300,1044.000,0.500,891.000,1.000,228.000,5.000,0
"04/03/08","08:15:33",17512.000,"cc",28401.766,6.00,6,0.100,12926.000,0.200,2426.000,0.300,1019.000,0.500,932.000,1.000,209.000,5.000,0
"04/03/08","08:15:39",17682.000,"cc",28321.494,6.00,6,0.100,13216.000,0.200,2310.000,0.300,1066.000,0.500,877.000,1.000,213.000,5.000,0
"04/03/08","08:15:45",17589.000,"cc",28269.830,6.00,6,0.100,13145.000,0.200,2270.000,0.300,1040.000,0.500,940.000,1.000,194.000,5.000,0
"04/03/08","08:15:51",17728.000,"cc",28259.344,6.00,6,0.100,13221.000,0.200,2309.000,0.300,1080.000,0.500,920.000,1.000,198.000,5.000,0
"04/03/08","08:15:57",18063.000,"cc",28306.520,6.00,6,0.100,13418.000,0.200,2388.000,0.300,1114.000,0.500,936.000,1.000,207.000,5.000,0
"04/03/08","08:16:03",17687.000,"cc",28330.742,6.00,6,0.100,13106.000,0.200,2442.000,0.300,1056.000,0.500,886.000,1.000,197.000,5.000,0
"04/03/08","08:16:09",18007.000,"cc",28349.344,6.00,6,0.100,13375.000,0.200,2391.000,0.300,1131.000,0.500,910.000,1.000,200.000,5.000,0
"04/03/08","08:16:15",17769.000,"cc",28366.889,6.00,6,0.100,13179.000,0.200,2392.000,0.300,1047.000,0.500,935.000,1.000,216.000,5.000,0
"04/03/08","08:16:21",17765.000,"cc",28294.801,6.00,6,0.100,13151.000,0.200,2392.000,0.300,1099.000,0.500,924.000,1.000,199.000,5.000,0